Location: Heilbronn
(49.1548°N, 9.2780°E)
Time: 08:33:15
(UTC+01:00)

ISS - Visible Passes

Search period start: 21 February 2018 00:00
Search period end: 03 March 2018 00:00
Orbit: 402 x 407 km, 51.6° (Epoch: 21 February)

Date Brightness Start Highest point End Pass type
(mag) Time Alt. Az. Time Alt. Az. Time Alt. Az.
26 Feb -0.9 06:24:48 10° S 06:26:43 15° SE 06:28:38 10° ESE visible
28 Feb -1.9 06:15:27 10° SSW 06:18:18 27° SE 06:21:09 10° E visible
01 Mar -1.3 05:23:54 10° S 05:26:09 17° SE 05:28:24 10° E visible
02 Mar -0.8 04:33:54 10° SE 04:34:04 10° SE 04:34:42 10° ESE visible
02 Mar -3.1 06:06:44 10° SW 06:09:56 51° SSE 06:13:08 10° ENE visible
